Location: Atherton
(17.2661°S, 145.4859°E)
Time: 22:56:24
(UTC+10:00)

Vanguard 1 - Pass Details

Date: 26 June 2025
Orbit: 649 x 3822 km, 34.2° (Epoch: 17 July)

Event Time Altitude Azimuth Distance (km) Brightness Sun altitude
Rises 18:50:40 0° 291° (WNW) 7,809 16.7 -13.3°
Reaches altitude 10° 18:56:33 10° 287° (WNW) 6,543 15.7 -14.7°
Maximum altitude 19:15:51 61° 210° (SSW) 2,658 12.2 -19.0°
Enters shadow 19:23:47 23° 137° (SE) 3,204 12.1 -20.8°
Drops below altitude 10° 19:26:30 10° 130° (SE) 3,827 - -21.4°
Sets 19:29:01 0° 125° (SE) 4,504 - -22.0°
